Location: Wharf Road Observatory
(44.7802°N, 65.6070°W)
Time: 03:38:53
(UTC-04:00)

X-37B - Visible Passes

Search period start: 04 March 2024 00:00
Search period end: 14 March 2024 01:00
Orbit: 277 x 277 km, 45.0° (Epoch: 01 November)

Date Brightness Start Highest point End Pass type
(mag) Time Alt. Az. Time Alt. Az. Time Alt. Az.
07 Mar 2.0 19:34:35 10° SSW 19:35:48 17° S 19:35:48 17° S visible
08 Mar 1.1 19:34:45 10° SW 19:36:52 28° SSE 19:36:52 28° SSE visible
09 Mar 0.3 19:35:10 10° SW 19:37:32 44° SSE 19:37:49 41° SE visible
10 Mar -0.1 20:35:45 10° WSW 20:38:11 66° SSE 20:38:40 48° ESE visible
11 Mar -0.2 20:36:24 10° W 20:38:52 86° S 20:39:27 46° E visible
12 Mar -0.2 20:37:06 10° W 20:39:33 82° N 20:40:12 44° E visible
13 Mar -0.2 20:37:48 10° W 20:40:15 81° N 20:40:55 43° E visible
